Dewpoint
47 48 48 48 47 47 48 49 50 49 49 49 51 53 53 52 52 52 49 54 60 62 62 58 57 55 54 52 50 47 42 40 38 43 43 45 45 51 54 54 55 57 55 55 55
46 47 48 48 47 47 47 47 49 50 49 49 49 51 53 53 50 49 50 55 60 61 57 56 55 55 51 49 47 44 41 40 40 42 43 44 44 48 52 54 54 54 57 56 55
46 47 47 48 47 48 48 48 47 50 50 50 49 49 53 51 40 40 58 60 58 61 58 57 57 55 51 48 46 45 42 43 39 39 40 42 42 46 50 50 53 54 56 55 55
45 45 47 48 48 49 48 46 46 49 50 50 50 49 52 49 7 49 57 57 59 60 57 56 56 53 52 48 46 43 44 44 43 40 40 40 40 42 49 48 52 56 56 56 53
49 47 48 49 49 49 47 47 48 49 50 49 50 49 48 38 39 42 54 57 57 57 54 53 52 52 49 48 47 44 43 44 43 40 39 40 39 41 46 55 56 57 57 56 53
51 50 49 49 49 49 48 49 49 49 49 49 49 49 44 35 36 45 54 54 54 54 53 54 53 54 52 51 47 46 44 43 44 40 40 40 40 45 53 57 57 57 56 57 55
53 52 51 49 49 48 48 48 49 49 49 49 49 46 44 38 39 40 40 51 54 53 50 52 54 53 53 49 52 46 44 44 44 44 40 41 39 40 54 57 56 56 56 57 57
54 53 52 50 49 49 49 49 49 49 49 49 49 45 37 41 42 42 42 41 51 54 54 54 55 53 52 52 51 47 47 42 44 45 42 41 36 40 56 55 54 55 55 56 57
53 54 52 50 50 49 49 49 49 49 49 50 44 41 37 42 39 42 42 40 46 49 51 51 52 50 49 46 42 46 41 42 41 43 42 40 37 40 56 55 54 54 54 55 56
53 53 52 50 49 49 49 49 49 48 47 46 46 35 31 35 38 38 41 46 44 45 44 48 48 45 44 43 34 36 41 42 40 41 44 41 38 40 55 55 55 54 54 54 55
53 53 51 49 48 48 47 40 36 32 37 33 33 34 36 37 37 39 41 42 43 42 35 41 41 37 40 42 40 38 34 34 42 42 45 41 40 40 45 54 54 54 53 53 54
53 53 51 48 48 49 43 38 39 39 34 36 37 36 36 37 34 34 44 37 38 34 37 36 35 38 41 41 41 39 36 34 43 42 45 43 40 40 41 48 51 55 55 54 53
53 52 50 49 48 44 40 41 45 43 34 31 35 36 34 38 35 34 39 39 36 35 34 34 36 38 38 38 37 37 35 35 35 44 44 44 43 43 44 44 42 53 56 56 53
53 51 50 49 41 40 40 46 45 39 15 20 29 31 35 38 33 37 40 38 37 32 31 32 36 36 39 35 36 34 39 37 39 41 37 42 35 42 42 42 42 50 55 55 51
51 50 49 45 41 40 43 46 44 32 -2 14 29 36 35 33 31 29 41 39 35 34 34 28 35 38 36 37 37 35 38 37 37 40 41 41 37 40 44 42 42 52 53 50 48
51 51 49 44 43 43 45 41 33 13 -7 17 27 29 30 31 32 34 35 41 40 35 33 33 37 40 39 39 38 38 36 36 40 40 34 38 38 36 41 42 42 50 48 47 46
51 49 46 44 39 44 43 33 14 3 15 14 24 28 29 29 29 31 32 32 32 25 19 28 34 40 40 38 39 36 34 30 28 29 30 39 38 38 40 42 42 48 46 45 44
49 46 43 41 43 43 34 22 -0 -3 8 25 27 27 24 27 27 30 30 29 32 31 26 21 20 37 40 36 35 35 34 29 22 27 30 38 34 38 41 45 44 48 43 40 40
47 42 38 40 42 37 28 9 7 6 24 28 24 22 19 26 27 27 29 30 34 33 26 22 24 39 39 41 37 34 33 35 30 31 31 33 35 36 41 40 42 39 39 37 36
40 37 36 40 40 33 23 17 22 29 32 30 20 22 21 17 24 22 22 30 35 37 37 31 24 33 38 41 40 37 38 31 32 25 24 31 33 34 36 37 38 37 37 36 35
37 31 36 39 35 28 15 10 22 31 33 29 26 21 23 21 26 26 17 27 36 36 36 33 33 28 35 34 34 34 35 35 34 32 26 27 31 25 37 38 37 36 35 35 36
33 21 37 35 25 25 13 23 26 26 35 33 33 29 26 21 25 27 23 28 36 37 33 35 33 29 32 36 37 37 36 35 29 29 31 29 30 28 35 40 38 36 34 35 36
28 26 35 32 16 12 18 26 25 25 29 30 30 33 33 25 21 26 30 30 35 36 33 34 31 26 28 32 34 34 36 36 32 31 27 28 29 34 35 38 37 34 35 36 37
29 22 26 31 27 22 23 22 25 27 27 29 29 30 31 26 28 23 27 30 34 36 38 39 33 30 23 27 31 31 34 35 35 28 28 28 25 29 34 34 33 34 35 36 36
28 20 21 15 25 28 27 24 23 19 27 29 25 29 29 22 22 27 29 30 32 35 34 36 29 32 33 33 30 30 31 33 32 31 27 28 25 26 33 35 33 34 36 37 37
28 25 29 25 28 26 26 24 24 20 26 23 24 27 30 26 26 23 26 29 31 30 33 35 28 31 28 29 27 29 31 31 33 33 32 31 30 32 33 35 34 35 36 36 36
30 30 29 26 24 25 22 23 24 25 24 26 27 28 28 29 31 31 30 30 30 30 31 33 29 20 20 23 24 19 25 31 31 33 32 30 30 30 33 35 35 36 36 36 36
Lifted_Index
15 15 15 15 16 16 16 16 15 15 16 15 15 14 14 14 14 14 12 9 6 4 4 4 3 3 3 3 4 4 3 3 3 2 1 0 -0 -1 -0 -0 0 0 1 1 2
15 15 15 15 16 16 16 16 16 15 15 16 15 15 14 14 15 14 12 9 7 5 5 4 3 3 3 3 4 4 4 3 2 2 1 0 -0 -1 -0 -0 -0 -0 0 1 2
15 15 15 15 15 15 16 16 16 15 15 15 15 15 14 14 15 14 11 9 7 6 5 4 3 3 3 3 3 4 4 3 2 2 1 1 0 -0 -0 -0 -0 -0 0 1 2
15 15 15 15 15 15 16 16 16 16 15 15 15 15 15 15 15 13 11 9 8 7 6 5 3 2 2 2 3 3 3 3 2 2 1 1 1 0 -0 -0 0 -0 0 1 2
14 15 15 15 15 15 16 16 16 16 15 15 15 15 16 16 16 15 12 10 9 8 7 5 4 2 2 2 2 2 3 3 2 2 1 1 1 1 0 0 0 0 0 1 2
14 14 14 15 15 15 15 15 15 15 15 15 16 16 16 17 18 17 14 12 11 10 8 6 4 2 1 1 1 2 2 2 2 2 1 1 1 1 1 1 0 0 1 1 2
13 13 14 14 15 15 15 15 15 16 16 16 16 16 17 18 18 17 16 14 13 11 9 7 4 2 1 0 1 1 1 1 1 1 1 1 1 1 1 0 0 0 1 1 1
12 12 13 14 15 15 15 15 15 15 15 15 16 16 18 18 18 17 17 16 14 12 9 7 4 3 1 1 0 1 1 1 1 1 1 1 1 1 0 -0 -0 0 1 1 1
11 11 12 13 14 15 15 15 15 15 15 15 16 17 18 18 17 17 16 16 14 12 9 6 4 2 1 1 1 1 1 1 1 1 1 1 1 1 -0 -1 -1 -0 0 1 1
11 11 12 13 14 14 15 15 16 16 16 16 16 17 18 18 17 17 16 15 13 10 7 5 2 1 1 1 1 1 1 1 2 1 1 1 1 1 -0 -1 -1 -1 0 1 1
10 11 12 13 13 14 15 16 16 16 16 17 17 17 17 17 17 16 14 12 9 7 5 2 1 1 1 2 2 2 1 1 1 1 1 1 1 1 0 -1 -1 -1 -0 1 1
10 11 12 13 13 14 15 15 15 16 16 17 17 16 16 15 14 12 10 7 4 3 2 1 0 1 2 2 3 2 2 2 2 1 1 1 1 1 0 -0 -1 -1 -1 0 0
11 11 12 13 13 14 14 14 14 15 15 15 15 14 13 11 9 7 4 2 1 0 0 0 1 1 1 2 3 3 3 3 2 1 1 1 1 1 1 0 -0 -1 -1 -1 -0
11 11 12 12 13 14 14 13 14 13 13 13 12 10 9 7 5 3 1 0 0 0 0 1 1 1 1 2 3 3 3 3 3 2 1 1 1 1 1 1 0 -0 -1 -1 -1
11 11 12 12 13 13 13 13 13 11 10 10 9 8 6 4 3 1 -0 -0 0 0 0 1 1 1 1 2 3 3 3 3 3 2 1 1 1 1 1 1 1 -0 -1 -1 -2
11 11 12 12 12 12 12 12 11 9 7 7 7 6 4 3 1 1 0 0 0 1 1 1 1 0 0 1 2 2 2 2 2 1 1 1 1 1 1 1 1 0 -0 -1 -1
11 11 12 12 12 12 11 10 9 7 6 5 5 4 3 2 1 0 0 0 1 1 1 1 1 1 0 1 1 2 1 1 1 1 1 1 1 1 2 1 1 1 0 -0 -1
11 11 11 11 11 11 11 9 7 5 4 4 3 3 2 1 1 1 1 1 1 1 1 1 1 1 0 0 0 1 1 1 1 1 1 1 1 1 2 2 1 1 1 0 -0
12 12 11 11 11 10 9 7 5 4 3 3 2 2 2 1 1 1 1 1 0 0 1 1 1 1 0 0 0 1 1 2 2 1 1 1 1 1 2 2 2 2 1 1 1
12 12 12 11 11 10 8 6 5 4 3 2 2 2 1 1 1 2 1 1 0 0 1 1 2 1 1 1 1 2 2 3 2 1 1 1 1 1 1 1 1 1 2 1 1
12 12 11 11 10 9 7 6 5 4 3 3 2 2 1 1 1 2 2 1 1 1 1 2 2 2 1 2 2 2 3 3 2 2 1 1 1 2 2 1 1 1 1 1 1
11 11 11 10 9 8 6 5 5 4 4 3 3 2 2 1 1 2 2 2 2 2 1 2 2 2 2 2 3 3 3 2 2 2 2 2 2 2 2 2 1 1 1 1 1
12 11 11 10 8 7 5 5 4 4 4 4 3 3 2 2 2 2 2 2 3 2 2 2 1 1 1 2 3 3 2 2 2 2 2 2 2 3 3 2 2 1 1 1 1
11 11 11 9 7 6 5 4 4 4 4 4 4 3 3 2 2 2 2 3 3 3 2 1 1 1 1 2 2 2 2 2 1 2 2 2 2 3 3 3 2 2 2 2 2
11 11 10 9 7 5 4 4 4 4 5 5 4 4 3 2 2 2 3 3 3 3 2 2 1 1 1 2 2 2 2 2 1 1 2 2 2 2 3 3 3 3 3 3 3
11 11 10 9 7 5 5 5 5 5 5 5 5 4 3 2 2 2 3 3 4 3 3 2 2 1 1 2 2 2 2 2 2 2 2 2 2 2 3 3 4 4 4 4 4
11 11 11 9 7 6 5 5 5 5 6 6 5 4 3 3 3 3 3 4 4 4 3 2 2 2 1 2 2 2 2 2 2 2 2 2 2 2 3 4 4 5 5 5 4